Torna al catalogo

IRIDIUM 143

AttivoComunicazioniPO
NORAD 43258·PAYLOAD·🇺🇸 United States

Lanciato Mar 30, 2018 da Vandenberg Space Force Base

Loading…

Prossimi Passaggi (prossime 24 ore)

TLE

AggiornatoSource: CelesTrak SupGP

Epoca: Sep 14, 2026, 20:28 UTC

1 43258C 18030K   26257.85312500  .00003351  00000+0  11981-2 0  2570
2 43258  86.3917 253.0545 0002241  87.8365 281.0857 14.34213540    17

Traccia IRIDIUM 143 in tempo reale con AllMySat

Download on the App Store